SCOUT G-1 R/B, 17071

Orbit data source: Space-Track

SCOUT G-1 R/B, 17071 is space debris in LEO originally from a launch on Fri, 14 Nov 1986 UTC launched from the Air Force Western Test Range (AFWTR). Debris objects in space refer to the collection of defunct objects orbiting the Earth. Examples of debris include non-operational satellites, rocket bodies, and fragments generated from explosions, collisions, or faulty payload assembly.

Loading next visibility...
Identifier
17071, 1986-088B
Orbit
LEO
Country
Flag of USUS
Related business
Manufacturer
Thiokol/TE
Mission
Spacecraft
Bus & Motor
STAR 20, Unknown motor
Mass
31 kg wet, 31 kg dry
Launch date (UTC)
1986-11-14 (39 years ago)
Launch vehicle
Unknown
Launch site
Air Force Western Test Range (AFWTR)
Object type
Payload
Rocket body
Debris
Shape & HBR
Cyl, 0.8 m
Radar Cross Section
0.687 m², Medium (>0.1 m² and < 1m²)

Expand to show TLE details & history
Last TLE update: 7 hours ago

TLE from 7 hours ago
0 SCOUT G-1 R/B
1 17071U 86088B   25261.20346611  .00000100  00000-0  92382-4 0  9994
2 17071  89.6143 178.7295 0038908   1.1920 358.9331 13.75566354948333
Epoch: 2025-09-18T04:52Z
TLE epoch observation values (Epoch: 2025-09-18T04:52:59.471Z)
Latitude
-0.00004°
Longitude
108.11327°
Altitude
954.017 km
Speed
7.389 km/s
True Right ascension
11h 54m 55s
True Declination
0° 00' 00"
Sunlit
Object was in daylight at epoch
Visualization orbit readout
Latitude
Unknown
Longitude
Unknown
Altitude
Unknown
Speed
Unknown
Apparent Right ascension
Unknown
Apparent Declination
Unknown
Sunlit
N/A
Visualization observer readout
Local Sidereal Time
04:29:25
Azimuth
Unknown
Elevation
Unknown
Doppler factor
Unknown
Orbital elements
Apogee altitude
1,005.284 km
Perigee altitude
948.051 km
Semi-major axis
7,354.804 km
Eccentricity
0.00389
Inclination
89.6143°
RAAN
178.7295°
Arg. of periapsis
1.192°
True anomaly
358.92476°
Mean anomaly
358.9331°
Eccentric anomaly
358.92893°
Mean motion
3.44101 °/min
Orbital period
104.62 mins
BSTAR
0.000092382
Loading maneuver chart data...
Computing Atmospheric mass density...
Loading historical data...
Loading historical data...
Loading historical data...
Loading historical data...
Loading historical data...
Loading historical data...
Loading historical data...
Other satellites on launch #88 in the year 1986 (1986-11-14 UTC)

Documentation

Showing up to 5 results
|